These data are preliminary and have not undergone final quality control by the National Climatic Data Center (NCDC). Therefore, these data are subject to revision. Final and certified climate data can be accessed at the NCDC - http://www.ncdc.noaa.gov.

Regional Weather Roundup


000
ASUS46 KSEW 141220
RWRWA

WASHINGTON REGIONAL WEATHER ROUNDUP
NATIONAL WEATHER SERVICE SEATTLE WA
500 AM PDT WED APR 14 2021

NOTE:"FAIR" INDICATES FEW OR NO CLOUDS BELOW 12,000 FEET WITH NO
SIGNIFICANT WEATHER AND/OR OBSTRUCTIONS TO VISIBILITY.

WAZ507-509-555>559-141300-
SEATTLE, TACOMA, EVERETT, AND VICINITY

CITY           SKY/WX    TMP DP  RH WIND       PRES   REMARKS
EVERETT        CLEAR     42  27  55 CALM      30.24S
6HR MIN TEMP:  41; 6HR MAX TEMP:  49;

BOEING FIELD   CLEAR     44  32  62 VRB3      30.24S
6HR MIN TEMP:  44; 6HR MAX TEMP:  52;

RENTON         CLEAR     39  30  70 CALM      30.24R
6HR MIN TEMP:  39; 6HR MAX TEMP:  51;

SEATAC AIRPORT PTCLDY    43  29  57 N6        30.22S
6HR MIN TEMP:  43; 6HR MAX TEMP:  54;

JBLM-MCCHORD   CLEAR     48  26  43 NE5       30.22S
6HR MIN TEMP:  47; 6HR MAX TEMP:  54;

PUYALLUP       FAIR      36  28  75 CALM      30.22S
BREMERTON      CLEAR     46  28  49 NE9       30.22R
6HR MIN TEMP:  46; 6HR MAX TEMP:  50;

JBLM-FT LEWIS  CLEAR     35  26  70 SE9       30.21S
6HR MIN TEMP:  35; 6HR MAX TEMP:  55;

TACOMA NARROWS CLEAR     48  28  46 NE12G18   30.22F
6HR MIN TEMP:  47; 6HR MAX TEMP:  52;


WAZ001-503-506-510-514-515-141300- NORTH INTERIOR CITY SKY/WX TMP DP RH WIND PRES REMARKS BELLINGHAM CLEAR 46 27 47 N7 30.25R 6HR MIN TEMP: 39; 6HR MAX TEMP: 46; FRIDAY HARBOR CLEAR 50 35 56 N8G17 30.27R 6HR MIN TEMP: 47; 6HR MAX TEMP: 54; EASTSOUND CLEAR 48 43 81 NW6 30.26S PORT ANGELES CLEAR 41 26 55 SW7 30.27S 6HR MIN TEMP: 41; 6HR MAX TEMP: 46; EDIZ HOOK FAIR 45 36 72 CALM 30.27S 6HR MIN TEMP: 45; 6HR MAX TEMP: 49; PORT TOWNSEND FAIR 45 28 53 NW6 30.24F NAS WHIDBEY PTCLDY 39 34 82 SE5 30.29S ARLINGTON CLEAR 31 29 92 NW3 30.26R 6HR MIN TEMP: 31; 6HR MAX TEMP: 45; BURLINGTON CLEAR 37 30 75 CALM 30.26S
WAZ020-022-039-040-504-511-512-141300- SOUTHWEST INTERIOR CITY SKY/WX TMP DP RH WIND PRES REMARKS SHELTON CLEAR 27 25 92 CALM 30.21S 6HR MIN TEMP: 27; 6HR MAX TEMP: 42; OLYMPIA CLEAR 32 25 75 S3 30.22S 6HR MIN TEMP: 30; 6HR MAX TEMP: 43; CHEHALIS FAIR 36 32 87 CALM 30.23R KELSO CLEAR 35 30 82 CALM 30.21S 6HR MIN TEMP: 34; 6HR MAX TEMP: 51; VANCOUVER CLEAR 48 24 39 N6 30.17R 6HR MIN TEMP: 48; 6HR MAX TEMP: 55; SCAPPOOSE, OR CLEAR 39 28 64 CALM 30.17S 6HR MIN TEMP: 37; 6HR MAX TEMP: 49; PORTLAND, OR CLEAR 48 27 44 N8 30.17R 6HR MIN TEMP: 46; 6HR MAX TEMP: 57;
WAZ021-516-517-141300- WASHINGTON COAST CITY SKY/WX TMP DP RH WIND PRES REMARKS FORKS NOT AVBL HOQUIAM CLEAR 36 29 75 E7 30.21S 6HR MIN TEMP: 35; 6HR MAX TEMP: 47; ASTORIA, OR CLEAR 36 29 75 CALM 30.19R 6HR MIN TEMP: 36; 6HR MAX TEMP: 54;
WAZ019-023-024-040-567>569-141300- CASCADE MOUNTAINS AND COLUMBIA GORGE CITY SKY/WX TMP DP RH WIND PRES REMARKS STAMPEDE PASS CLEAR 35 12 38 VRB3 30.19S 6HR MIN TEMP: 33; 6HR MAX TEMP: 41; TROUTDALE, OR NOT AVBL HOOD RIVER, OR SUNNY 34 25 69 MISG 30.19S THE DALLES, OR CLEAR 40 25 55 SW8 30.19S 6HR MIN TEMP: 38; 6HR MAX TEMP: 47;
WAZ026-027-041>044-520-521-141300- EAST SLOPES CITY SKY/WX TMP DP RH WIND PRES REMARKS OMAK CLEAR 44 16 32 N14 30.26F 6HR MIN TEMP: 37; 6HR MAX TEMP: 49; WENATCHEE CLEAR 41 17 38 CALM 30.25S 6HR MIN TEMP: 36; 6HR MAX TEMP: 52; ELLENSBURG CLEAR 36 14 40 N7 30.22S 6HR MIN TEMP: 36; 6HR MAX TEMP: 49; YAKIMA CLEAR 34 15 46 W5 30.23S 6HR MIN TEMP: 34; 6HR MAX TEMP: 48; SUNNYSIDE ARPT SUNNY 42 17 36 NW5 30.21 6HR MIN TEMP: 41; 6HR MAX TEMP: 48; YAKIMA TC FAIR 42 10 27 NE14 30.20F 6HR MIN TEMP: 38; 6HR MAX TEMP: 44;
WAZ028-034-035-141300- COLUMBIA BASIN CITY SKY/WX TMP DP RH WIND PRES REMARKS EPHRATA CLEAR 41 11 29 N10 30.23S 6HR MIN TEMP: 39; 6HR MAX TEMP: 47; MOSES LAKE CLEAR 37 15 40 N12 30.23S 6HR MIN TEMP: 36; 6HR MAX TEMP: 44; PASCO CLEAR 43 20 39 N14 30.17S 6HR MIN TEMP: 37; 6HR MAX TEMP: 46; RICHLAND ARPT SUNNY 46 19 32 N13G18 30.18S 6HR MIN TEMP: 47; 6HR MAX TEMP: 54; HERMISTON, OR NOT AVBL
WAZ036>038-141300- NORTHEAST WASHINGTON CITY SKY/WX TMP DP RH WIND PRES REMARKS SPOKANE GEIGER PTCLDY 39 12 33 VRB5 30.22S 6HR MIN TEMP: 38; 6HR MAX TEMP: 44; SPOKANE FELTS CLEAR 43 13 29 NE3 30.24S 6HR MIN TEMP: 38; 6HR MAX TEMP: 45; FAIRCHILD AFB CLEAR 37 11 33 NE13 30.20F 6HR MIN TEMP: 34; 6HR MAX TEMP: 43; COEURDALENE,ID CLEAR 35 15 44 NE13 30.24F WCI 26 6HR MIN TEMP: 29; 6HR MAX TEMP: 42; DEER PARK CLEAR 35 12 38 NE10 30.25S WCI 27 6HR MIN TEMP: 30; 6HR MAX TEMP: 45;
WAZ029>033-141300- SOUTHEAST WASHINGTON CITY SKY/WX TMP DP RH WIND PRES REMARKS PULLMAN CLEAR 36 15 42 NE16 30.16F 6HR MIN TEMP: 36; 6HR MAX TEMP: 42; LEWISTON, ID CLEAR 40 15 36 E7 30.15S 6HR MIN TEMP: 40; 6HR MAX TEMP: 47; WALLA WALLA CLEAR 37 16 42 E10 30.08F 6HR MIN TEMP: 35; 6HR MAX TEMP: 45; PENDLETON, OR CLEAR 26 17 68 N3 30.09S 6HR MIN TEMP: 25; 6HR MAX TEMP: 42;